Barrow, AK

11:11 AM AKDT on June 20, 2018 (GMT -0800)
Wiley Post-Will Rogers Memorial

Weather History for PABR - November, 2017

Change the Weather History Date:

Saturday, November 25, 2017

  Actual Average Record
Temperature  
Mean Temperature 9 °F -3 °F  
Max Temperature 15 °F 3 °F 33 °F (1931)
Min Temperature 2 °F -9 °F -40 °F (1948)
Degree Days  
Heating Degree Days 56 68  
Month to date heating degree days 1026 1584  
Since 1 July heating degree days 4526 5607  
Cooling Degree Days 0 0  
Month to date cooling degree days 0 0  
Year to date cooling degree days 0 0  
Moisture  
Dew Point 6 °F    
Average Humidity 81    
Maximum Humidity 88    
Minimum Humidity 68    
Precipitation  
Precipitation 0.01 in 0.00 in 0.06 in (1976)
Month to date precipitation 0.96 0.18  
Year to date precipitation 8.00 4.36  
Snow  
Snow 0.00 in 0.10 in 1.30 in (1999)
Month to date snowfall 6.9 4.9  
Since 1 July snowfall 14.8 19.5  
Since 1 September snowfall 14.0 18.4  
Snow Depth 5.00 in    
Sea Level Pressure  
Sea Level Pressure 30.04 in    
Wind  
Wind Speed 9 mph (East)    
Max Wind Speed 22 mph    
Max Gust Speed -    
Visibility 7 miles    
Events Snow    
T = Trace of Precipitation, MM = Missing Value Source: NWS Daily Summary

Daily Weather History Graph

Daily Weather History Graph

Search for Another Location

Airport or City:

Astronomy

Nov. 25, 2017 Rise Set
Actual Time 12:41 PM AKST 1:46 PM AKST
Civil Twilight 10:38 AM AKST 3:49 PM AKST
Nautical Twilight 8:56 AM AKST 5:30 PM AKST
Astronomical Twilight 7:35 AM AKST 6:51 PM AKST
Moon 4:04 PM AKST (11/25) 10:26 PM AKST (11/25)
Length of Visible Light 5h 10m
Length of Day
1h 04m
Waxing Crescent, 42% of the Moon is Illuminated
Nov 25
Waxing Crescent
Nov 26
First Quarter
Dec 3
Full
Dec 9
Last Quarter
Dec 17
New

Hourly Weather History & Observations

Time (AKST) Temp. Windchill Dew Point Humidity Pressure Visibility Wind Dir Wind Speed Gust Speed Precip Events Conditions
12:53 AM 15.1 °F 5.2 °F 7.0 °F 70% 30.16 in 10.0 mi NW 6.9 mph - N/A   Overcast
1:10 AM 15.1 °F 9.4 °F 9.0 °F 77% 30.16 in 1.8 mi WNW 3.5 mph - 0.00 in Snow Light Snow
1:17 AM 15.1 °F 3.3 °F 8.1 °F 74% 30.16 in 3.0 mi NNW 9.2 mph - 0.00 in Snow Light Snow
1:53 AM 15.1 °F 3.3 °F 8.1 °F 74% 30.17 in 10.0 mi North 9.2 mph - 0.00 in   Overcast
2:25 AM 15.1 °F 6.4 °F 8.1 °F 74% 30.17 in 2.0 mi North 5.8 mph - 0.00 in Snow Light Snow
2:53 AM 14.0 °F 6.5 °F 8.1 °F 77% 30.17 in 1.5 mi NW 4.6 mph - 0.01 in Snow Light Snow
3:04 AM 14.0 °F 8.2 °F 8.1 °F 77% 30.16 in 2.5 mi North 3.5 mph - 0.00 in Snow Light Snow
3:13 AM 15.1 °F 6.4 °F 8.1 °F 74% 30.16 in 7.0 mi North 5.8 mph - 0.00 in Snow Light Snow
3:53 AM 15.1 °F 4.2 °F 6.1 °F 68% 30.16 in 7.0 mi NW 8.1 mph - 0.00 in Snow Light Snow
4:53 AM 12.9 °F 5.2 °F 8.1 °F 81% 30.14 in 9.0 mi ESE 4.6 mph - 0.00 in   Overcast
5:53 AM 10.9 °F -0.8 °F 7.0 °F 84% 30.13 in 10.0 mi East 8.1 mph - N/A   Overcast
6:53 AM 9.0 °F 0.6 °F 5.0 °F 84% 30.13 in 10.0 mi ESE 4.6 mph - N/A   Overcast
7:53 AM 10.0 °F -0.9 °F 6.1 °F 84% 30.12 in 10.0 mi SE 6.9 mph - N/A   Overcast
8:53 AM 10.9 °F -2.6 °F 6.1 °F 81% 30.11 in 10.0 mi SE 10.4 mph - N/A   Overcast
9:53 AM 10.9 °F -0.8 °F 6.1 °F 81% 30.10 in 10.0 mi East 8.1 mph - N/A   Overcast
10:53 AM 10.9 °F -1.8 °F 5.0 °F 77% 30.09 in 10.0 mi East 9.2 mph - N/A   Overcast
11:53 AM 10.9 °F -2.6 °F 5.0 °F 77% 30.07 in 10.0 mi ESE 10.4 mph - N/A   Overcast
12:53 PM 10.9 °F -1.8 °F 5.0 °F 77% 30.06 in 8.0 mi ESE 9.2 mph - N/A   Overcast
1:53 PM 10.0 °F -5.9 °F 6.1 °F 84% 30.03 in 10.0 mi ESE 13.8 mph - N/A   Overcast
2:53 PM 10.0 °F -4.5 °F 6.1 °F 84% 30.02 in 10.0 mi ESE 11.5 mph - N/A   Overcast
3:53 PM 10.0 °F -7.1 °F 6.1 °F 84% 29.99 in 10.0 mi ESE 16.1 mph - N/A   Overcast
4:53 PM 10.0 °F -8.6 °F 7.0 °F 87% 29.96 in 6.0 mi ESE 19.6 mph - N/A   Overcast
5:53 PM 10.0 °F -9.5 °F 7.0 °F 87% 29.93 in 4.0 mi ESE 21.9 mph - N/A   Overcast
6:53 PM 10.0 °F -9.1 °F 6.1 °F 84% 29.91 in 3.0 mi ESE 20.7 mph - N/A   Overcast
7:53 PM 10.0 °F -7.6 °F 7.0 °F 87% 29.91 in 9.0 mi ESE 17.3 mph - N/A   Overcast
8:53 PM 9.0 °F -9.0 °F 6.1 °F 88% 29.89 in 10.0 mi ESE 17.3 mph - N/A   Overcast
9:53 PM 7.0 °F -12.1 °F 3.9 °F 87% 29.87 in 10.0 mi ESE 18.4 mph - N/A   Mostly Cloudy
10:21 PM 6.1 °F -13.3 °F 3.0 °F 87% 29.85 in 10.0 mi ESE 18.4 mph - N/A   Scattered Clouds
10:53 PM 5.0 °F -14.2 °F 1.9 °F 87% 29.85 in 10.0 mi ESE 17.3 mph - N/A   Clear
11:46 PM 3.0 °F -16.1 °F -0.0 °F 87% 29.84 in 3.0 mi ESE 16.1 mph - N/A   Mostly Cloudy
11:53 PM 3.0 °F -15.5 °F -0.0 °F 87% 29.85 in 2.5 mi ESE 15.0 mph - N/A   Mostly Cloudy